Overview Statistics Trail Chart Weather Telemetry Raw packets
 

This is the latest recevied weather packets stored in our database for station/object YO8PIC-13. If no packets are shown the sender has not sent any weather packets the latest 10 day(s).

<< 30 31 32 33 34 35 36 >>
Time Temp. Humidity Pressure Rain* Wind** Luminosity Snow
1788096298 45.56° C 11% 1018.4 hPa - - - -
1788095698 42.78° C 14% 1018.5 hPa - - - -
1788095098 45° C 12% 1018.5 hPa - - - -
1788094498 43.89° C 12% 1018.7 hPa - - - -
1788093898 48.89° C 9% 1018.7 hPa - - - -
1788093297 41.67° C 14% 1018.9 hPa - - - -
1788092698 46.11° C 11% 1018.9 hPa - - - -
1788092098 40.56° C 17% 1019.2 hPa - - - -
1788091498 37.22° C 20% 1019.3 hPa - - - -
1788090897 36.11° C 21% 1019.5 hPa - - - -
1788090298 33.89° C 26% 1019.6 hPa - - - -
1788089698 33.33° C 25% 1019.6 hPa - - - -
1788089097 36.67° C 20% 1019.7 hPa - - - -
1788088498 37.78° C 18% 1019.7 hPa - - - -
1788087898 35.56° C 22% 1019.9 hPa - - - -
1788087298 40.56° C 17% 1019.9 hPa - - - -
1788086697 41.11° C 15% 1020 hPa - - - -
1788086098 41.67° C 15% 1020.1 hPa - - - -
1788085498 36.11° C 25% 1020.2 hPa - - - -
1788084897 45° C 15% 1020.1 hPa - - - -
1788084298 46.11° C 13% 1020.2 hPa - - - -
1788083698 46.67° C 13% 1020.3 hPa - - - -
1788083098 47.22° C 13% 1020.4 hPa - - - -
1788082497 43.89° C 16% 1020.5 hPa - - - -
1788081898 47.22° C 14% 1020.7 hPa - - - -

* Rain since midnight (hover to see other rain measurements)
** Current wind speed in m/s (hover to see current wind gust speed)